Tracking 19477 objects as of 16-Jan-2019
HD Live streaming from Space Station
objects crossing your sky now

OPS 9438 (DSCS 2-8)

Track OPS 9438 (DSCS 2-8) now!
OPS 9438 (DSCS 2-8) is classified as:


NORAD ID: 10001
Int'l Code: 1977-034B
Perigee: 37,067.9 km
Apogee: 37,350.7 km
Inclination: 14.7 °
Period: 1,509.0 minutes
Semi major axis: 43580 km
RCS: 6.1664 m2 (large)
Launch date: May 12, 1977
Source: United States (US)
Launch site: AIR FORCE EASTERN TEST RANGE (AFETR)
aabbcc
Your satellite tracking list
Your tracking list is empty




NASA's NSSDC Master Catalog

Two Line Element Set (TLE):
1 10001U 77034B   19015.91338986 -.00000067  00000-0  00000+0 0  9999
2 10001  14.6554 325.3823 0032446  77.6958 102.0260  0.95426050 91659
Source of the keplerian elements: AFSPC